AirNav   Pilot Hours Calculator
 
 315 users online  

67KY Estes Airport
Florence, Kentucky, USA

GOING TO FLORENCE?


FAA INFORMATION EFFECTIVE 15 AUGUST 2019

Location

FAA Identifier: 67KY
Lat/Long: 38-59-00.2190N 084-39-58.0000W
38-59.003650N 084-39.966667W
38.9833942,-84.6661111
(estimated)
Elevation: 890 ft. / 271 m (estimated)
Variation: 03W (1985)
From city: 2 miles SW of FLORENCE, KY
Time zone: UTC -4 (UTC -5 during Standard Time)
Zip code: 41042

Airport Operations

Airport use: Private use. Permission required prior to landing
Activation date: 08/1985
Control tower: no
ARTCC: INDIANAPOLIS CENTER
FSS: LOUISVILLE FLIGHT SERVICE STATION
Attendance: IREG
Wind indicator: yes
Segmented circle: no

Airport Communications

WX ASOS at CVG (4 nm N): PHONE 859-767-8210
WX ASOS at LUK (14 nm NE): PHONE 513-321-6291
WX AWOS-3PT at I67 (17 nm N): 118.15 (513-569-4964)

Nearby radio navigation aids

VOR radial/distance  VOR name  Freq  Var
CVGr142/2.6CINCINNATI VORTAC117.3004W
FLMr324/26.0FALMOUTH VOR/DME117.0004W

 
NDB name  Hdg/Dist  Freq  Var  ID
CINCINNATI239/18.533504WLUK .-.. ..- -.-
SPORTYS259/21.724504WPWF .--. .-- ..-.
HOOK FIELD202/32.523904WHKF .... -.- ..-.
BATESVILLE133/35.125405WHLB .... .-.. -...

Airport Services

Runway Information

Runway 4/22

Dimensions: 1500 x 100 ft. / 457 x 30 m
Surface: turf
RUNWAY 4  RUNWAY 22
Traffic pattern: leftleft

Airport Ownership and Management from official FAA records

Ownership: Privately-owned
Owner: KENNETH RAY ESTES
7443 HOPEFUL CHURCH ROAD
FLORENCE, KY 41042
Phone 859-525-1675
Manager: KENNETH RAY ESTES
7443 HOPEFUL CHURCH ROAD
FLORENCE, KY 41042
Phone 859-525-1675

Airport Operational Statistics

Aircraft based on the field: 2
Single engine airplanes: 2
    

Additional Remarks

FOR CD CTC CINCINNATI APCH AT 859-372-6440

Instrument Procedures

There are no published instrument procedures at 67KY.

Some nearby airports with instrument procedures:

KCVG - Cincinnati/Northern Kentucky International Airport (4 nm N)
KLUK - Cincinnati Municipal Airport-Lunken Field (14 nm NE)
I67 - Cincinnati West Airport (17 nm N)
K62 - Gene Snyder Airport (21 nm SE)
I69 - Clermont County Airport (22 nm E)
 
Loc | Ops | Rwys | IFR | FBO | Links
Com | Nav | Svcs | Stats | Notes
Area around 67KY (Estes Airport)
 
Road maps at: MapQuest Bing Google
 
Aerial photo
No photo
 
Sectional chart

 
Airport distance calculator
Flying to Estes Airport? Find the distance to fly.

From to 67KY

Sunrise and sunset
Times for 26-Aug-2019
 Local
(UTC-4)
 Zulu
(UTC)
Morning civil twilight06:3510:35
Sunrise07:0311:03
Sunset20:1800:18
Evening civil twilight20:4600:46

Current date and time
Zulu (UTC)  26-Aug-2019 09:20:00
Local (UTC-4)  26-Aug-2019 05:20:00
 
METAR
KCVG 
4nm N 
260852Z 13008KT 5SM -RA BR BKN015 OVC024 20/18 A2997 RMK AO2 RAB32 SLP138 P0000 60000 T02000178 56008
KLUK 
14nm NE 
260853Z AUTO 00000KT 10SM OVC032 22/17 A2997 RMK AO2 SLP145 T02170167 56009
KI67 
17nm N 
260855Z AUTO 00000KT 10SM OVC022 19/16 A2996 RMK AO1
TAF
KCVG 
4nm N 
260547Z 2606/2712 12008KT P6SM BKN045 FM260800 14006KT P6SM VCSH SCT025 OVC045 FM261100 14007KT P6SM -SHRA OVC012 FM261400 14008KT 5SM SHRA BR OVC008 FM262300 15008KT 5SM BR BKN008 OVC012 FM270400 16008KT 5SM BR OVC015
KLUK 
14nm NE 
260547Z 2606/2706 10003KT P6SM BKN050 FM260800 12003KT P6SM VCSH SCT030 OVC050 FM261200 15004KT P6SM -SHRA OVC018 FM261500 16006KT 5SM SHRA BR OVC010 FM270100 15007KT 5SM BR OVC015
NOTAMs
Click for the latest NOTAMs
NOTAMs are issued by the DoD/FAA and will open in a separate window not controlled by AirNav.

 

 
 

Would you like to see your business listed on this page?

 If your business provides an interesting product or service to pilots, flight crews, aircraft, or users of the Estes Airport, you should consider listing it here.  To start the listing process, click on the button below
 
Add a business
 

Other Pages about Estes Airport

Update a link
 
Copyright © AirNav, LLC. All rights reserved. Privacy Policy  Contact